COSMOS 724

导读

**COSMOS 724卫星摘要** COSMOS 724是苏联(现独联体CIS)于1975年4月7日发射的航天器,隶属于苏联/俄罗斯广泛的"宇宙"(COSMOS)卫星系列。该系列命名涵盖多种用途卫星,多包含军事侦察、空间科学等任务,具体任务细节因保密原则未对外公开。作为冷战时期苏联航天活动的一部分,反映了当时苏联在近地轨道部署航天器的技术能力,大多数该系列卫星已完成任务,部分已再入大气层销毁。

基本信息
目录编号:
7727
目录名称:
COSMOS 724
国际标识:
1975-025A
轨道中心:
EARTH
卫星名称:
COSMOS 724
卫星全名:
--
卫星状态:
在轨 (已飞行18788 天)
发射日期:
1975-04-07 UTC
国别 :
俄罗斯(独联体) (CIS)
星等 :
--
该卫星已列入 空间交会检测服务 Space Conjunction Data Service (SCDS) ,当前飞行风险评估等级: 无高风险
轨道信息
数据来源 国际轨道数据 AOE轨道数据
星历时间 2026-09-13T12:41:00+0800
1天前
查看轨道信息
2026-09-12T23:00:00+0800
1天前
查看轨道信息
半长轴 7274.936km 7274.935km
偏心率 0.0045613 0.0045633
轨道倾角 65.590° 65.591°
近地点辐角 74.294° 74.550°
升交点赤经 189.664° 191.144°
平近点角 286.316° 294.578°
近地点 863.615km 863.6km
远地点 929.983km 929.996km
周期 102.921分钟 102.921分钟
每日圈数 13.991332 13.991334
详细信息
使用方式:
暂无
2D轨道图
3D轨道图
轨道高度分析图
轨道倾角分析图
轨道综合分析图
查看轨道综合分析图
与全量物体交会距离演化趋势 订阅飞行安全评估服务
与全量物体交会风险概率演化趋势 订阅飞行安全评估服务